Flag for Ecuador Weather past 2 weeks in Guayaquil, Ecuador

Now
73 °F

Partly cloudy.


Feels Like: 74 °F
Forecast: 71 / 83 °F
Wind: 7 mph from Southwest

Location: Guayaquil / Simon Bolivar

Current Time: Sep 17, 2014 at 5:34:08 AM

Latest Report: Sep 17, 2014 at 5:00 AM


Visibility: N/A

Pressure: 29.89 "Hg

Humidity: 78%

Dew point: 66 °F

Location of GuayaquilLocation

Historic Weather in Guayaquil — Graph

°F

Guayaquil temperature yesterday

Maximum temperature yesterday: 86 °F (at 2:00 PM)
Minimum temperature yesterday: 73 °F (at 1:00 AM)
Average temperature yesterday: 78 °F

Past Weeks' High & Low Weather Summary

 TemperatureHumidityPressure
High93 °F (Sep 14, 4:00 PM)100% (Sep 5, 3:00 PM)29.98 "Hg (Sep 5, 3:00 PM)
Low50 °F (Sep 5, 3:00 PM)39% (Sep 14, 4:00 PM)29.74 "Hg (Sep 3, 4:00 PM)
Average77 °F70%29.85 "Hg
* Reported Sep 2 4:00 AM — Sep 17 4:00 AM, Guayaquil, Weather by CustomWeather, © 2014

Note: Actual official high and low records may vary slightly from our data, if they occured in-between our weather recording intervals... More about our weather records

Advertising

Guayaquil weather history for previous 24 hours

 ConditionsComfort  
Time TempWeatherWind HumidityBarometerVisibility
4:00 AM
Sep 17
73 °FPartly cloudy.5 mph78%29.89 "HgN/A
3:00 AM73 °FPartly cloudy.10 mph78%29.89 "HgN/A
2:00 AM73 °FPassing clouds.7 mph78%29.92 "HgN/A
1:00 AM73 °FPassing clouds.9 mph78%29.92 "HgN/A
12:00 AM73 °FPassing clouds.9 mph78%29.95 "HgN/A
11:00 PM
Sep 16
73 °FPartly cloudy.13 mph78%29.92 "HgN/A
10:00 PM73 °FPassing clouds.14 mph78%29.92 "HgN/A
9:00 PM75 °FPartly cloudy.15 mph74%29.89 "HgN/A
8:00 PM77 °FPartly cloudy.16 mph69%29.89 "HgN/A
7:00 PM79 °FPartly cloudy.16 mph70%29.86 "HgN/A
6:00 PM81 °FBroken clouds.12 mph66%29.83 "HgN/A
5:00 PM84 °FScattered clouds.8 mph62%29.80 "HgN/A
2:00 PM86 °FPartly sunny.7 mph59%29.86 "HgN/A
1:00 PM84 °FPartly sunny.7 mph62%29.89 "HgN/A
12:00 PM82 °FPartly sunny.7 mph62%29.92 "HgN/A
11:00 AM81 °FPartly sunny.5 mph66%29.95 "HgN/A
10:00 AM79 °FPartly sunny.6 mph70%29.98 "HgN/A
9:00 AM79 °FBroken clouds.3 mph70%29.95 "HgN/A
8:00 AM77 °FPartly sunny.5 mph74%29.95 "HgN/A
7:00 AM73 °FBroken clouds.5 mph83%29.95 "HgN/A
6:00 AM73 °FPassing clouds.5 mph78%29.92 "HgN/A
5:00 AM73 °FPartly cloudy.6 mph83%29.92 "HgN/A
Weather by CustomWeather, © 2014

See weather overviewHow to use our weather pages